Location: Unspecified
(34.4480°N, 0.0000°E)
Time: 21:50:49
(UTC+00:00)

Hubble Space Telescope - Visible Passes

Search period start: 11 November 2019 00:00
Search period end: 21 November 2019 00:00
Orbit: 536 x 540 km, 28.5° (Epoch: 10 November)

Date Brightness Start Highest point End Pass type
(mag) Time Alt. Az. Time Alt. Az. Time Alt. Az.
16 Nov 3.1 18:37:02 10° S 18:38:29 12° SSE 18:38:29 12° SSE visible
17 Nov 2.8 18:25:41 10° SSW 18:28:07 15° SSE 18:28:34 15° SSE visible
18 Nov 2.7 18:14:34 10° SSW 18:17:26 18° SSE 18:18:38 16° SE visible
19 Nov 2.5 18:03:35 10° SW 18:06:44 21° SSE 18:08:41 16° SE visible
19 Nov 3.9 19:43:44 10° WSW 19:44:01 12° WSW 19:44:01 12° WSW visible
20 Nov 2.4 17:52:43 10° SW 17:56:05 24° SSE 17:58:42 14° ESE visible
20 Nov 3.5 19:33:05 10° WSW 19:34:03 16° WSW 19:34:03 16° WSW visible
